Home > Weather > Plzen > Past weeks

Flag for Czech Republic Past Weather in Plzen, Czech Republic — Yesterday and Last 2 Weeks

Now
59 °F

Cool.


Feels Like: 59 °F
Forecast: 54 / 71 °F
Wind: 1 mph from Southwest

Location: Kocelovice

Current Time: Aug 30, 2016 at 1:41:09 AM

Latest Report: Aug 30, 2016 at 1:00 AM


Visibility: 8 mi

Pressure: 30.19 "Hg

Humidity: 94%

Dew Point: 57 °F

Location of PlzenLocation

Past Weather in Plzen — Graph

°F

Plzen Temperature Yesterday

Maximum temperature yesterday: 71 °F (at 5:00 PM)
Minimum temperature yesterday: 60 °F (at 11:00 PM)
Average temperature yesterday: 66 °F

High & Low Weather Summary for the Past Weeks

 TemperatureHumidityPressure
High87 °F (Aug 28, 3:00 PM)98% (Aug 28, 6:00 AM)30.41 "Hg (Aug 28, 6:00 AM)
Low48 °F (Aug 18, 6:00 AM)32% (Aug 27, 4:00 PM)29.75 "Hg (Aug 18, 5:00 PM)
Average65 °F67%30.08 "Hg
* Reported Aug 15 12:00 AM — Aug 30 12:00 AM, Plzen, Weather by CustomWeather, © 2016

Note: Actual official high and low records may vary slightly from our data, if they occured in-between our weather recording intervals... More about our weather records

Advertising

Plzen Weather History for the Previous 24 Hours

Scroll right to see more
 ConditionsComfort  
Time TempWeatherWind HumidityBarometerVisibility
12:00 AM
Tue, Aug 30
60 °FCool.1 mph96%30.17 "Hg9 mi
11:00 PM
Mon, Aug 29
60 °FCool.2 mph94%30.16 "Hg12 mi
10:00 PM61 °FPassing clouds.3 mph89%30.14 "Hg22 mi
9:00 PM63 °FPassing clouds.2 mph83%30.11 "Hg22 mi
8:00 PM66 °FPassing clouds.N/A79%30.07 "Hg22 mi
7:00 PM68 °FPartly sunny.2 mph77%30.05 "Hg19 mi
6:00 PM69 °FScattered clouds.3 mph70%30.04 "Hg25 mi
5:00 PM71 °FPartly sunny.6 mph69%30.03 "Hg25 mi
4:00 PM71 °FPartly sunny.5 mph76%30.03 "Hg22 mi
3:00 PM68 °FOvercast.5 mph80%30.05 "Hg22 mi
2:00 PM68 °FOvercast.3 mph84%30.06 "Hg12 mi
1:00 PM67 °FOvercast.5 mph83%30.07 "Hg12 mi
12:00 PM64 °FSprinkles. Low clouds.N/A94%30.08 "Hg1 mi
11:00 AM62 °FLight rain. Low clouds.5 mph96%30.09 "Hg1 mi
10:00 AM63 °FLight rain. Overcast.5 mph95%30.07 "Hg8 mi
9:00 AM63 °FThundershowers. Overcast.N/A96%30.06 "Hg8 mi
8:00 AM63 °FLight rain. Overcast.N/A94%30.04 "Hg10 mi
7:00 AM62 °FRain. Cloudy.6 mph90%30.03 "Hg9 mi
6:00 AM64 °FMild.N/A80%29.99 "Hg12 mi
5:00 AM64 °FMild.2 mph77%29.98 "Hg12 mi
4:00 AM65 °FMild.2 mph76%29.99 "Hg12 mi
3:00 AM67 °FMild.6 mph74%30.02 "Hg12 mi
2:00 AM70 °FRain showers. Overcast.5 mph75%30.01 "Hg12 mi
1:00 AM66 °FMild.N/A83%30.00 "Hg12 mi
Weather by CustomWeather, © 2016

See weather overviewHow to use our weather pages